WX2DX-2 Weather Reports


time (UTC)temp
C
wind
direction
speed
KPH
gust
KPH
rain 1hr
cm
rain 24hr
cm
rain mn
cm
humidity
%
barometer
mb
20260507124606 9 258 1.6 6.4 0.00 0.23 0.00 59 1012.5
20260507123058 9 309 1.6 9.7 0.00 0.23 0.00 63 1012.5
20260507121555 8 338 1.6 6.4 0.00 0.23 0.00 64 1012.4
20260507120052 8 331 1.6 8.0 0.00 0.23 0.00 67 1012.3
20260507114603 7 269 0.0 6.4 0.00 0.43 0.00 68 1012.1
20260507113102 6 315 1.6 4.8 0.00 0.43 0.00 78 1012.0
20260507111541 3 291 1.6 3.2 0.00 0.43 0.00 86 1012.1
20260507110032 2 317 0.0 0.0 0.00 0.43 0.00 91 1011.9
20260507104538 1 317 0.0 1.6 0.00 0.51 0.00 90 1011.7
20260507103026 1 317 0.0 0.0 0.00 0.51 0.00 89 1011.6
20260507101524 1 317 0.0 0.0 0.00 0.51 0.00 88 1011.7
20260507100019 1 313 0.0 0.0 0.00 0.51 0.00 87 1011.5
20260507094518 1 313 0.0 0.0 0.00 0.51 0.00 87 1011.4
20260507093016 2 313 0.0 3.2 0.00 0.51 0.00 85 1011.3
20260507091512 2 327 0.0 3.2 0.00 0.51 0.00 83 1011.3
20260507090009 3 327 0.0 1.6 0.00 0.51 0.00 81 1011.3
20260507084507 3 327 0.0 3.2 0.00 0.51 0.00 78 1011.2
20260507083001 4 327 0.0 1.6 0.00 0.51 0.00 74 1011.2
20260507081601 5 327 0.0 0.0 0.00 0.51 0.00 71 1011.2
20260507080053 6 327 0.0 1.6 0.00 0.51 0.00 68 1011.2
20260507074557 6 327 0.0 4.8 0.00 0.51 0.00 64 1011.2
20260507073052 7 286 0.0 4.8 0.00 0.51 0.00 64 1011.2
20260507071547 7 292 0.0 12.9 0.00 0.51 0.00 64 1011.2
20260507070046 7 281 0.0 6.4 0.00 0.51 0.00 65 1011.0
20260507064550 7 285 1.6 12.9 0.00 0.51 0.00 65 1011.0
20260507063045 7 271 0.0 6.4 0.00 0.51 0.00 64 1011.2
20260507061543 7 234 0.0 6.4 0.00 0.51 0.00 64 1011.3
20260507060050 7 248 3.2 11.3 0.00 0.51 0.00 63 1011.6
20260507054539 7 278 1.6 4.8 0.00 0.51 0.00 65 1011.5
20260507053038 7 309 1.6 6.4 0.00 0.51 0.00 64 1011.4
20260507051535 7 289 0.0 1.6 0.00 0.51 0.00 64 1011.6
20260507050033 8 334 1.6 14.5 0.00 0.51 0.00 63 1011.5
20260507044533 8 302 3.2 11.3 0.00 0.51 0.00 61 1011.5
20260507043030 8 309 1.6 6.4 0.00 0.51 0.00 59 1011.3
20260507041526 8 296 1.6 4.8 0.00 0.51 0.00 60 1011.4
20260507040023 8 305 1.6 4.8 0.00 0.51 0.00 58 1010.9
20260507034531 8 331 8.0 19.3 0.00 0.51 0.51 56 1011.3
20260507033021 8 333 1.6 4.8 0.00 0.51 0.51 59 1011.2
20260507031519 8 269 0.0 16.1 0.00 0.51 0.51 60 1011.0
20260507030016 9 329 4.8 12.9 0.00 0.51 0.51 64 1010.8
20260507024518 9 289 1.6 8.0 0.00 0.51 0.51 70 1010.7
20260507023011 9 350 4.8 12.9 0.00 0.51 0.51 69 1010.6
20260507021510 10 274 6.4 19.3 0.00 0.51 0.51 72 1010.4
20260507020041 10 343 1.6 12.9 0.00 0.51 0.51 81 1010.3
20260507014520 10 284 1.6 6.4 0.00 0.51 0.51 80 1010.5
20260507013023 10 225 1.6 12.9 0.00 0.51 0.51 81 1010.5
20260507011530 10 263 1.6 4.8 0.00 0.51 0.51 84 1010.6
20260507010017 10 340 0.0 1.6 0.00 0.51 0.51 83 1010.5
20260507004516 10 325 1.6 4.8 0.00 0.51 0.51 84 1010.4
20260507003014 10 313 0.0 3.2 0.00 0.51 0.51 84 1010.3
20260507001536 10 304 0.0 3.2 0.00 0.51 0.51 83 1009.8
20260507000014 11 304 0.0 3.2 0.00 0.51 0.51 81 1009.7
20260506234508 11 291 3.2 12.9 0.00 0.51 0.51 81 1009.3
20260506233007 11 320 3.2 8.0 0.00 0.51 0.51 80 1009.0
20260506231505 11 277 1.6 12.9 0.00 0.51 0.51 81 1008.8
20260506230004 11 250 1.6 8.0 0.00 0.51 0.51 81 1008.7
20260506224503 11 331 3.2 9.7 0.00 0.51 0.51 81 1009.0
20260506223104 11 333 4.8 9.7 0.00 0.51 0.51 82 1008.8
20260506221610 12 321 4.8 14.5 0.00 0.51 0.51 82 1008.2
20260506220054 12 316 3.2 16.1 0.00 0.51 0.51 81 1008.1
20260506214554 12 295 1.6 12.9 0.00 0.51 0.51 82 1008.0
20260506213049 12 283 6.4 16.1 0.00 0.51 0.51 81 1007.7
20260506211546 12 272 4.8 12.9 0.00 0.51 0.51 83 1007.5
20260506210053 13 287 6.4 14.5 0.00 0.51 0.51 82 1007.0
20260506204546 13 234 9.7 17.7 0.00 0.53 0.51 81 1006.9
20260506203042 13 290 6.4 25.7 0.00 0.53 0.51 82 1006.8
20260506201539 13 258 6.4 24.1 0.00 0.53 0.51 84 1006.7
20260506200038 13 229 8.0 20.9 0.00 0.53 0.51 85 1006.6
20260506194536 13 213 8.0 19.3 0.00 0.53 0.51 87 1006.3
20260506193041 13 250 8.0 19.3 0.00 0.53 0.51 87 1006.2
20260506191531 13 275 6.4 20.9 0.00 0.53 0.51 88 1006.1
20260506190033 15 279 6.4 17.7 0.00 0.53 0.51 86 1005.7
20260506184537 15 267 11.3 22.5 0.00 0.53 0.51 87 1005.6
20260506183030 15 223 4.8 12.9 0.00 0.53 0.51 90 1005.6
20260506181537 15 235 8.0 16.1 0.03 0.53 0.51 92 1005.5
20260506180028 14 250 4.8 16.1 0.03 0.53 0.51 92 1005.4
20260506174530 14 331 6.4 17.7 0.03 0.53 0.51 93 1005.4
20260506173028 14 267 3.2 19.3 0.05 0.53 0.51 94 1005.4
20260506171532 14 234 4.8 12.9 0.03 0.51 0.48 95 1005.2
20260506170029 14 242 4.8 11.3 0.03 0.51 0.48 94 1005.0
20260506164542 14 239 4.8 8.0 0.03 0.51 0.48 94 1004.9
20260506163023 14 197 4.8 11.3 0.00 0.48 0.46 94 1004.9
20260506161524 14 229 4.8 11.3 0.03 0.48 0.46 94 1005.0
20260506160023 14 202 3.2 9.7 0.03 0.48 0.46 94 1004.9
20260506154520 13 247 4.8 11.3 0.03 0.48 0.46 94 1004.8
20260506153021 13 239 0.0 4.8 0.03 0.48 0.46 94 1004.8
20260506151518 13 190 1.6 4.8 0.00 0.46 0.43 93 1004.7
20260506150019 13 241 0.0 3.2 0.00 0.46 0.43 93 1004.6
20260506144524 13 232 1.6 4.8 0.00 0.46 0.43 93 1004.4
20260506143019 13 250 0.0 4.8 0.03 0.46 0.43 93 1004.5
20260506141526 13 242 0.0 3.2 0.05 0.46 0.43 93 1004.4
20260506140017 13 213 3.2 6.4 0.08 0.46 0.43 92 1004.4
20260506134515 13 257 3.2 6.4 0.08 0.46 0.43 92 1004.2
20260506133014 13 192 1.6 6.4 0.05 0.43 0.41 93 1004.4
20260506131515 13 225 1.6 6.4 0.05 0.41 0.38 93 1004.6
20260506130015 13 177 1.6 4.8 0.08 0.38 0.36 92 1004.6